Location: Most
(50.5133°N, 13.6207°E)
Time: 22:07:43
(UTC+02:00)

ISS - Pass Details

Date: 12 September 2019
Orbit: 411 x 421 km, 51.6° (Epoch: 17 September)

Event Time Altitude Azimuth Distance (km) Brightness Sun altitude
Exits shadow 04:43:46 56° 252° (WSW) 501 -3.8 -17.6°
Maximum altitude 04:44:15 67° 201° (SSW) 453 -3.9 -17.5°
Drops below altitude 10° 04:47:35 10° 118° (ESE) 1,490 -0.5 -17.0°
Sets 04:49:41 0° 116° (ESE) 2,353 0.6 -16.7°
